This demonstration page uses our WeatherBlox Daily Observations layout. Learn more.

Hourly Observations for April 30, 2015

Temp ( °F °C ) Dew Point ( °F °C ) Humidity (%) Winds ( mph kmh ) Pressure ( in mb ) Visibility ( mi km ) Precip ( " mm )
12:15 am 00:15 Clear 48 9 34 1 58 58 ESE 8 13 29.97 1015 10 16.0934 0 0
12:35 am 00:35 Clear 48 8.7 32 0.2 56 56 ESE 8 13 29.97 1015 10 16.0934 0 0
12:55 am 00:55 Clear 49 9.2 32 0.2 54 54 SE 8 13 29.97 1015 10 16.0934 0 0
1:15 am 01:15 Clear 48 8.9 32 0 54 54 SE 8 13 29.97 1015 10 16.0934 0 0
1:35 am 01:35 Clear 46 7.6 32 0 59 59 ESE 8 13 30 1016 10 16.0934 0 0
1:55 am 01:55 Clear 46 8 32 0 57 57 SE 8 13 30 1016 10 16.0934 0 0
2:15 am 02:15 Clear 47 8.6 31 -0.7 52 52 SSE 6 9 30.03 1017 10 16.0934 0 0
2:35 am 02:35 Clear 47 8.3 31 -0.8 53 53 SSE 6 9 30 1016 10 16.0934 0 0
2:55 am 02:55 Clear 44 6.8 31 -0.6 60 60 SSE 7 11 30 1016 10 16.0934 0 0
3:15 am 03:15 Clear 46 7.5 31 -0.7 56 56 S 5 7 30 1016 10 16.0934 0 0
3:35 am 03:35 Clear 47 8.1 31 -0.5 55 55 S 5 7 30 1016 10 16.0934 0 0
3:55 am 03:55 Clear 47 8.4 31 -0.8 53 53 SSE 7 11 30 1016 10 16.0934 0 0
4:15 am 04:15 Clear 46 8 30 -0.9 54 54 SSE 6 9 30 1016 10 16.0934 0 0
4:35 am 04:35 Clear 45 7.2 31 -0.6 58 58 SSE 7 11 30 1016 10 16.0934 0 0
4:55 am 04:55 Clear 44 6.6 31 -0.5 61 61 SE 7 11 30 1016 10 16.0934 0 0
5:15 am 05:15 Clear 43 5.9 31 -0.4 64 64 SE 7 11 30 1016 10 16.0934 0 0
5:35 am 05:35 Clear 42 5.4 31 -0.3 67 67 ESE 7 11 30.03 1017 10 16.0934 0 0
5:55 am 05:55 Clear 40 4.6 31 -0.5 70 70 ESE 7 11 30.03 1017 10 16.0934 0 0
6:15 am 06:15 Clear 41 5.1 31 -0.4 68 68 ESE 7 11 30.03 1017 10 16.0934 0 0
6:35 am 06:35 Clear 40 4.7 32 0 72 72 ESE 6 9 30.03 1017 10 16.0934 0 0
6:55 am 06:55 Sunny 42 5.3 32 0 69 69 SSE 3 6 30.06 1018 10 16.0934 0 0
7:15 am 07:15 Sunny 43 6.1 32 0 65 65 S 5 7 30.03 1017 10 16.0934 0 0
7:35 am 07:35 Sunny 46 7.5 33 0.8 63 63 SSE 5 7 30.03 1017 10 16.0934 0 0
7:55 am 07:55 Sunny 49 9.3 35 1.5 59 59 SSE 7 11 30.03 1017 10 16.0934 0 0
8:15 am 08:15 Sunny 53 11.5 37 2.5 54 54 SE 8 13 30 1016 10 16.0934 0 0
8:30 am 08:30 Sunny 54 12.4 36 2.1 50 50 SE 10 17 30 1016 10 16.0934 0 0
8:55 am 08:55 Sunny 58 14.6 36 2 43 43 SSE 15 24 29.97 1015 10 16.0934 0 0
9:15 am 09:15 Sunny 60 15.7 34 1.3 38 38 SSE 15 24 29.94 1014 10 16.0934 0 0
9:35 am 09:35 Sunny 62 16.5 34 1 35 35 SSE 15 24 29.94 1014 10 16.0934 0 0
9:55 am 09:55 Sunny 64 17.5 33 0.8 33 33 SSE 17 28 29.94 1014 10 16.0934 0 0
10:15 am 10:15 Sunny 64 18 32 0 30 30 SSE 18 30 29.94 1014 10 16.0934 0 0
10:35 am 10:35 Sunny 66 18.9 32 0 28 28 SSE 18 30 29.94 1014 10 16.0934 0 0
10:55 am 10:55 Sunny 67 19.3 33 0.8 29 29 SSE 17 28 29.94 1014 10 16.0934 0 0
11:15 am 11:15 Sunny 68 19.9 35 1.9 30 30 SSE 20 31 29.91 1013 10 16.0934 0 0
11:35 am 11:35 Sunny 68 20 36 2.2 31 31 SSE 17 28 29.91 1013 10 16.0934 0 0
11:55 am 11:55 Sunny 69 20.5 37 2.6 31 31 S 17 28 29.91 1013 10 16.0934 0 0
12:15 pm 12:15 Sunny 69 20.8 37 2.5 30 30 SSE 17 28 29.91 1013 10 16.0934 0 0
12:35 pm 12:35 Sunny 70 21.1 37 2.6 30 30 SSE 20 31 29.88 1012 10 16.0934 0 0
12:55 pm 12:55 Sunny 71 21.7 37 2.7 29 29 SE 16 26 29.88 1012 10 16.0934 0 0
1:15 pm 13:15 Sunny 72 22.2 38 3.2 29 29 SSE 20 31 29.88 1012 10 16.0934 0 0
1:35 pm 13:35 Sunny 72 22.3 38 3.1 28 28 S 17 28 29.88 1012 10 16.0934 0 0
1:55 pm 13:55 Sunny 73 22.5 38 3.3 29 29 SSE 20 31 29.85 1011 10 16.0934 0 0
2:15 pm 14:15 Sunny 73 22.7 38 3.2 28 28 S 15 24 29.85 1011 10 16.0934 0 0
2:35 pm 14:35 Sunny 74 23.1 38 3.1 27 27 S 10 17 29.85 1011 10 16.0934 0 0
2:55 pm 14:55 Sunny 75 23.7 38 3.6 27 27 S 17 28 29.85 1011 10 16.0934 0 0
3:15 pm 15:15 Sunny 75 24 38 3.5 26 26 S 15 24 29.83 1010 10 16.0934 0 0
3:35 pm 15:35 Sunny 75 23.9 38 3.4 26 26 SSE 16 26 29.83 1010 10 16.0934 0 0
3:55 pm 15:55 Sunny 75 24.1 39 3.7 27 27 S 16 26 29.83 1010 10 16.0934 0 0
4:15 pm 16:15 Sunny 76 24.3 39 3.9 27 27 S 16 26 29.83 1010 10 16.0934 0 0
4:35 pm 16:35 Sunny 76 24.5 39 3.7 26 26 SSE 12 19 29.83 1010 10 16.0934 0 0
4:55 pm 16:55 Sunny 76 24.6 39 3.7 26 26 S 8 13 29.83 1010 10 16.0934 0 0
5:15 pm 17:15 Sunny 76 24.7 39 3.8 26 26 SSE 13 20 29.83 1010 10 16.0934 0 0
5:35 pm 17:35 Sunny 76 24.6 39 3.7 26 26 S 14 22 29.8 1009 10 16.0934 0 0
5:55 pm 17:55 Sunny 76 24.6 39 3.9 26 26 S 15 24 29.8 1009 10 16.0934 0 0
6:15 pm 18:15 Sunny 76 24.5 39 3.8 26 26 S 17 28 29.83 1010 10 16.0934 0 0
6:35 pm 18:35 Sunny 76 24.5 39 3.9 26 26 S 15 24 29.8 1009 10 16.0934 0 0
7:15 pm 19:15 Sunny 75 23.7 39 4.1 28 28 SSE 17 28 29.83 1010 10 16.0934 0 0
7:35 pm 19:35 Sunny 73 23 39 4.1 29 29 SSE 17 28 29.83 1010 10 16.0934 0 0
7:55 pm 19:55 Sunny 71 21.7 39 4.1 32 32 SE 14 22 29.85 1011 10 16.0934 0 0
8:15 pm 20:15 Sunny 69 20.8 40 4.4 34 34 SE 12 19 29.85 1011 10 16.0934 0 0
8:35 pm 20:35 Clear 67 19.4 41 4.8 38 38 SE 13 20 29.85 1011 10 16.0934 0 0
8:55 pm 20:55 Clear 65 18.4 41 5.1 42 42 SE 13 20 29.88 1012 10 16.0934 0 0
9:15 pm 21:15 Clear 64 18 41 5.2 43 43 SE 13 20 29.88 1012 10 16.0934 0 0
9:35 pm 21:35 Clear 63 17.2 42 5.5 46 46 SE 12 19 29.91 1013 10 16.0934 0 0
9:55 pm 21:55 Clear 62 16.9 42 5.6 48 48 SE 13 20 29.91 1013 10 16.0934 0 0
10:15 pm 22:15 Clear 62 16.5 42 5.8 49 49 SE 13 20 29.91 1013 10 16.0934 0 0
10:35 pm 22:35 Clear 61 16 42 5.7 51 51 SE 14 22 29.94 1014 10 16.0934 0 0
10:55 pm 22:55 Clear 60 15.8 42 5.6 51 51 SE 15 24 29.94 1014 10 16.0934 0 0
11:15 pm 23:15 Clear 60 15.5 42 5.5 52 52 SE 13 20 29.94 1014 10 16.0934 0 0
11:35 pm 23:35 Clear 59 15.2 42 5.3 52 52 SSE 14 22 29.97 1015 10 16.0934 0 0
11:55 pm 23:55 Clear 59 15 42 5.4 53 53 SE 12 19 29.97 1015 10 16.0934 0 0

Powered by AerisWeather